• In Uzbekistan
  • List of Countries
  • For 7 days
  • Water Temperature
  • Satellite Maps
  • Weather Map
  • Weather Widgets
  • user-avatar
    Login

    Hourly Weather Wafra

    Today, 20 February, Tuesday

    Time Temperature Precipitation Wind Pressure Humidity
    00:00 +18°C° 0 mm 3 mps 749 mmHg 39%
    01:00 +17°C° 0 mm 3 mps 749 mmHg 40%
    02:00 +17°C° 0 mm 3 mps 748 mmHg 40%
    03:00 +16°C° 0 mm 3 mps 748 mmHg 41%
    04:00 +16°C° 0 mm 3 mps 749 mmHg 43%
    05:00 +14°C° 0 mm 3 mps 749 mmHg 44%
    06:00 +14°C° 0 mm 3 mps 749 mmHg 45%
    07:00 +16°C° 0 mm 3 mps 749 mmHg 42%
    08:00 +17°C° 0 mm 2 mps 749 mmHg 40%
    09:00 +18°C° 0 mm 2 mps 749 mmHg 37%
    10:00 +19°C° 0 mm 2 mps 749 mmHg 34%
    11:00 +20°C° 0 mm 2 mps 749 mmHg 31%
    12:00 +21°C° 0 mm 2 mps 749 mmHg 28%
    13:00 +23°C° 0 mm 2 mps 748 mmHg 26%
    14:00 +23°C° 0 mm 2 mps 748 mmHg 25%
    15:00 +24°C° 0 mm 3 mps 747 mmHg 23%
    16:00 +22°C° 0 mm 3 mps 747 mmHg 24%
    17:00 +23°C° 0 mm 2 mps 747 mmHg 25%
    18:00 +23°C° 0 mm 2 mps 747 mmHg 26%
    19:00 +21°C° 0 mm 2 mps 747 mmHg 28%
    20:00 +21°C° 0 mm 2 mps 747 mmHg 30%
    21:00 +20°C° 0 mm 2 mps 747 mmHg 32%
    22:00 +20°C° 0 mm 2 mps 747 mmHg 33%
    23:00 +19°C° 0 mm 2 mps 747 mmHg 35%

    Tomorrow, 21 February, Wednesday

    Time Temperature Precipitation Wind Pressure Humidity
    00:00 +20°C° 0 mm 1 mps 747 mmHg 36%
    01:00 +20°C° 0 mm 1 mps 747 mmHg 37%
    02:00 +19°C° 0 mm 1 mps 746 mmHg 39%
    03:00 +19°C° 0 mm 1 mps 746 mmHg 40%
    04:00 +18°C° 0 mm 1 mps 746 mmHg 41%
    05:00 +18°C° 0 mm 1 mps 746 mmHg 42%
    06:00 +16°C° 0 mm 1 mps 747 mmHg 43%
    07:00 +19°C° 0 mm 1 mps 747 mmHg 39%
    08:00 +20°C° 0 mm 1 mps 747 mmHg 36%
    09:00 +20°C° 0 mm 2 mps 748 mmHg 32%
    10:00 +21°C° 0 mm 2 mps 747 mmHg 29%
    11:00 +23°C° 0 mm 2 mps 747 mmHg 26%
    12:00 +25°C° 0 mm 3 mps 746 mmHg 22%
    13:00 +25°C° 0 mm 3 mps 746 mmHg 21%
    14:00 +26°C° 0 mm 4 mps 745 mmHg 21%
    15:00 +26°C° 0 mm 5 mps 745 mmHg 20%
    16:00 +25°C° 0 mm 5 mps 744 mmHg 23%
    17:00 +23°C° 0 mm 5 mps 744 mmHg 27%
    18:00 +22°C° 0 mm 4 mps 744 mmHg 31%
    19:00 +21°C° 0 mm 5 mps 744 mmHg 32%
    20:00 +21°C° 0 mm 5 mps 744 mmHg 34%
    21:00 +20°C° 0 mm 5 mps 744 mmHg 36%
    22:00 +20°C° 0 mm 5 mps 744 mmHg 37%
    23:00 +20°C° 0 mm 5 mps 744 mmHg 38%

    Day after tomorrow, 22 February, Thursday

    Time Temperature Precipitation Wind Pressure Humidity
    00:00 +19°C° 0 mm 4 mps 744 mmHg 39%
    01:00 +19°C° 0 mm 4 mps 743 mmHg 41%
    02:00 +19°C° 0 mm 4 mps 743 mmHg 43%
    03:00 +18°C° 0 mm 4 mps 743 mmHg 45%
    04:00 +18°C° 0 mm 4 mps 743 mmHg 46%
    05:00 +18°C° 0 mm 4 mps 743 mmHg 48%
    06:00 +18°C° 0 mm 4 mps 743 mmHg 50%
    07:00 +19°C° 0.2 mm 4 mps 743 mmHg 47%
    08:00 +20°C° 0.2 mm 5 mps 744 mmHg 44%
    09:00 +21°C° 0.2 mm 5 mps 744 mmHg 41%
    10:00 +22°C° 0.2 mm 5 mps 744 mmHg 37%
    11:00 +25°C° 0.2 mm 5 mps 743 mmHg 33%
    12:00 +27°C° 0.2 mm 6 mps 743 mmHg 29%
    13:00 +28°C° 0.1 mm 5 mps 743 mmHg 28%
    14:00 +28°C° 0.1 mm 5 mps 742 mmHg 26%
    15:00 +29°C° 0.1 mm 5 mps 741 mmHg 25%
    16:00 +28°C° 0 mm 5 mps 742 mmHg 31%
    17:00 +26°C° 0 mm 5 mps 742 mmHg 37%
    18:00 +23°C° 0 mm 5 mps 742 mmHg 43%
    19:00 +22°C° 0 mm 4 mps 742 mmHg 49%
    20:00 +21°C° 0 mm 4 mps 743 mmHg 54%
    21:00 +21°C° 0 mm 3 mps 743 mmHg 59%
    22:00 +20°C° 0 mm 2 mps 743 mmHg 61%
    23:00 +20°C° 0 mm 2 mps 743 mmHg 63%

    23 February, Friday

    Time Temperature Precipitation Wind Pressure Humidity
    00:00 +20°C° 0 mm 1 mps 743 mmHg 65%
    01:00 +20°C° 0 mm 1 mps 743 mmHg 66%
    02:00 +20°C° 0 mm 1 mps 743 mmHg 66%
    03:00 +19°C° 0 mm 1 mps 743 mmHg 67%
    04:00 +19°C° 0 mm 1 mps 743 mmHg 68%
    05:00 +19°C° 0 mm 1 mps 744 mmHg 69%
    06:00 +19°C° 0 mm 1 mps 744 mmHg 70%
    07:00 +20°C° 0 mm 1 mps 744 mmHg 65%
    08:00 +21°C° 0 mm 1 mps 745 mmHg 60%
    09:00 +22°C° 0 mm 1 mps 746 mmHg 55%
    10:00 +24°C° 0 mm 2 mps 745 mmHg 49%
    11:00 +25°C° 0 mm 2 mps 745 mmHg 43%
    12:00 +26°C° 0 mm 3 mps 744 mmHg 37%
    13:00 +26°C° 0 mm 3 mps 744 mmHg 36%
    14:00 +26°C° 0 mm 4 mps 743 mmHg 36%
    15:00 +27°C° 0 mm 4 mps 743 mmHg 35%
    16:00 +26°C° 0 mm 4 mps 743 mmHg 40%
    17:00 +25°C° 0 mm 4 mps 743 mmHg 44%
    18:00 +23°C° 0 mm 4 mps 743 mmHg 48%
    19:00 +22°C° 0 mm 4 mps 744 mmHg 50%
    20:00 +21°C° 0 mm 4 mps 744 mmHg 53%
    21:00 +21°C° 0 mm 3 mps 745 mmHg 56%
    22:00 +20°C° 0 mm 3 mps 744 mmHg 55%
    23:00 +20°C° 0 mm 3 mps 744 mmHg 55%

    24 February, Saturday

    Time Temperature Precipitation Wind Pressure Humidity
    00:00 +20°C° 0 mm 3 mps 744 mmHg 55%
    01:00 +20°C° 0 mm 3 mps 744 mmHg 55%
    02:00 +19°C° 0 mm 3 mps 743 mmHg 55%
    03:00 +19°C° 0 mm 3 mps 743 mmHg 56%
    04:00 +19°C° 0 mm 3 mps 743 mmHg 56%
    05:00 +19°C° 0 mm 2 mps 744 mmHg 56%
    06:00 +19°C° 0 mm 2 mps 744 mmHg 56%
    07:00 +20°C° 0.1 mm 2 mps 744 mmHg 54%
    08:00 +21°C° 0.1 mm 1 mps 745 mmHg 52%
    09:00 +22°C° 0.1 mm 1 mps 745 mmHg 49%
    10:00 +23°C° 0.1 mm 1 mps 745 mmHg 45%
    11:00 +24°C° 0.1 mm 2 mps 744 mmHg 41%
    12:00 +25°C° 0.1 mm 2 mps 744 mmHg 37%
    13:00 +25°C° 0.1 mm 3 mps 744 mmHg 37%
    14:00 +25°C° 0.1 mm 3 mps 743 mmHg 37%
    15:00 +25°C° 0.1 mm 3 mps 743 mmHg 36%
    16:00 +25°C° 0.1 mm 3 mps 743 mmHg 38%
    17:00 +24°C° 0.1 mm 3 mps 743 mmHg 40%
    18:00 +22°C° 0.1 mm 3 mps 743 mmHg 41%
    19:00 +22°C° 0.4 mm 3 mps 743 mmHg 45%
    20:00 +21°C° 0.4 mm 3 mps 744 mmHg 48%
    21:00 +20°C° 0.4 mm 3 mps 744 mmHg 52%
    22:00 +20°C° 0.3 mm 3 mps 744 mmHg 55%
    23:00 +19°C° 0.3 mm 3 mps 743 mmHg 58%

    25 February, Sunday

    Time Temperature Precipitation Wind Pressure Humidity
    00:00 +19°C° 0.3 mm 3 mps 743 mmHg 61%
    01:00 +19°C° 0.2 mm 3 mps 743 mmHg 63%
    02:00 +18°C° 0.2 mm 2 mps 743 mmHg 65%
    03:00 +19°C° 0.2 mm 1 mps 743 mmHg 67%
    04:00 +18°C° 0 mm 2 mps 743 mmHg 67%
    05:00 +18°C° 0 mm 2 mps 744 mmHg 67%
    06:00 +18°C° 0 mm 2 mps 744 mmHg 67%
    07:00 +19°C° 0 mm 2 mps 744 mmHg 62%
    08:00 +19°C° 0 mm 2 mps 745 mmHg 57%
    09:00 +20°C° 0 mm 2 mps 745 mmHg 53%
    10:00 +21°C° 0 mm 2 mps 745 mmHg 49%
    11:00 +23°C° 0 mm 2 mps 745 mmHg 46%
    12:00 +24°C° 0 mm 2 mps 745 mmHg 43%
    13:00 +25°C° 0 mm 3 mps 745 mmHg 41%
    14:00 +25°C° 0 mm 3 mps 744 mmHg 40%
    15:00 +26°C° 0 mm 3 mps 744 mmHg 38%
    16:00 +25°C° 0 mm 4 mps 744 mmHg 40%
    17:00 +23°C° 0 mm 4 mps 744 mmHg 42%
    18:00 +22°C° 0 mm 4 mps 745 mmHg 44%
    19:00 +22°C° 0 mm 4 mps 745 mmHg 46%
    20:00 +21°C° 0 mm 4 mps 745 mmHg 48%
    21:00 +21°C° 0 mm 4 mps 745 mmHg 49%
    22:00 +20°C° 0 mm 4 mps 745 mmHg 50%
    23:00 +20°C° 0 mm 4 mps 744 mmHg 51%
    Show more